Jordan, MT

7:21 AM MDT on September 23, 2017 (GMT -0600)
Jordan

Weather History for KJDN - September, 2013

Change the Weather History Date:

Friday, September 13, 2013

  Actual Average Record
Temperature  
Mean Temperature 70 °F 58 °F  
Max Temperature 84 °F 75 °F 96 °F (1908)
Min Temperature 56 °F 42 °F 21 °F (1949)
Degree Days  
Heating Degree Days 0 8  
Month to date heating degree days 4 73  
Since 1 July heating degree days 17 138  
Cooling Degree Days 5 1  
Month to date cooling degree days 71 20  
Year to date cooling degree days 514 413  
Growing Degree Days 20 (Base 50)    
Moisture  
Dew Point 54 °F    
Average Humidity 61    
Maximum Humidity 84    
Minimum Humidity 37    
Precipitation  
Precipitation 0.00 in 0.04 in 0.74 in (1967)
Month to date precipitation 0.88 0.50  
Year to date precipitation 15.18 10.42  
Snow  
Snow 0.00 in - - ()
Month to date snowfall 0.0  
Since 1 July snowfall 0.0  
Since 1 September snowfall 0.0  
Snow Depth 0.00 in    
Sea Level Pressure  
Sea Level Pressure 29.86 in    
Wind  
Wind Speed 5 mph (SE)    
Max Wind Speed 16 mph    
Max Gust Speed 22 mph    
T = Trace of Precipitation, MM = Missing Value Source: NWS Daily Summary

Daily Weather History Graph

Daily Weather History Graph

Search for Another Location

Airport or City:

Trip Planner

Search our weather history database for the weather conditions in past years. The results will help you decide how hot, cold, wet, or windy it might be!

Date:

Astronomy

Sep. 13, 2013 Rise Set
Actual Time 6:42 AM MDT 7:23 PM MDT
Civil Twilight 6:12 AM MDT 7:53 PM MDT
Nautical Twilight 5:35 AM MDT 8:30 PM MDT
Astronomical Twilight 4:56 AM MDT 9:08 PM MDT
Moon 3:32 PM MDT (9/13) No Moon Set
Length of Visible Light 13h 41m
Length of Day
12h 40m
Waxing Gibbous, 62% of the Moon is Illuminated
Sep 13
Waxing Gibbous
Sep 19
Full
Sep 26
Last Quarter
Oct 4
New
Oct 11
First Quarter

Hourly Weather History & Observations

Time (MDT) Temp. Heat Index Dew Point Humidity Pressure Visibility Wind Dir Wind Speed Gust Speed Precip Events Conditions
12:48 AM 63.0 °F - 51.1 °F 65% 30.02 in - Calm Calm - N/A   Unknown
1:48 AM 61.0 °F - 51.1 °F 70% 30.01 in - NE 4.6 mph - N/A   Unknown
2:48 AM 62.1 °F - 50.0 °F 65% 29.99 in - ENE 4.6 mph - N/A   Unknown
3:48 AM 59.0 °F - 50.0 °F 72% 29.99 in - East 4.6 mph - N/A   Unknown
4:48 AM 57.0 °F - 50.0 °F 77% 29.97 in - East 3.5 mph - N/A   Unknown
5:48 AM 59.0 °F - 50.0 °F 72% 29.95 in - ESE 5.8 mph - N/A   Unknown
6:48 AM 57.0 °F - 50.0 °F 77% 29.95 in - SE 3.5 mph - N/A   Unknown
7:48 AM 60.1 °F - 52.0 °F 75% 29.95 in - Calm Calm - N/A   Unknown
8:48 AM 66.9 °F - 54.0 °F 63% 29.93 in - Calm Calm - N/A   Unknown
9:48 AM 73.9 °F - 54.0 °F 50% 29.90 in - South 11.5 mph - N/A   Unknown
10:48 AM 75.0 °F - 54.0 °F 48% 29.88 in - South 11.5 mph 17.3 mph N/A   Unknown
11:48 AM 78.1 °F - 54.0 °F 43% 29.85 in - South 6.9 mph 17.3 mph N/A   Unknown
12:48 PM 79.0 °F - 54.0 °F 42% 29.83 in - South 8.1 mph - N/A   Unknown
1:48 PM 81.0 °F 80.7 °F 55.0 °F 41% 29.81 in - South 8.1 mph - N/A   Unknown
2:48 PM 84.0 °F 82.9 °F 55.0 °F 37% 29.77 in - SSE 11.5 mph - N/A   Unknown
3:48 PM 84.0 °F 82.9 °F 55.0 °F 37% 29.76 in - SE 11.5 mph - N/A   Unknown
4:48 PM 84.0 °F 82.9 °F 55.0 °F 37% 29.75 in - Variable 5.8 mph - N/A   Unknown
5:48 PM 82.9 °F 81.9 °F 54.0 °F 37% 29.73 in - SW 4.6 mph - N/A   Unknown
6:48 PM 79.0 °F - 57.9 °F 48% 29.73 in - Calm Calm - N/A   Unknown
7:48 PM 73.9 °F - 57.9 °F 57% 29.73 in - Calm Calm - N/A   Unknown
9:48 PM 66.0 °F - 59.0 °F 78% 29.73 in - Calm Calm - N/A   Unknown
10:48 PM 64.0 °F - 59.0 °F 84% 29.72 in - Calm Calm - N/A   Unknown
11:48 PM 64.9 °F - 57.9 °F 78% 29.72 in - West 4.6 mph - N/A   Unknown